Station History

Weather Underground - logo

Station Historical Data
Daily Summary for August 23, 2017 Units:  English    Metric   Both
« Previous Day
Next Day »
Daily Weekly Monthly Yearly Custom
  High: Low: Average:
Temperature: TemperatureF °F 66.6 °F 81.3 °F
Dew Point: DewpointF °F 59.3 °F 64.1 °F
Humidity: Humidity % 30 % 59 %
Wind Speed: WindSpeedMPH mph 0.0 mph 1.2 mph
Wind Gust: WindSpeedGustMPH mph - -
Wind:- - SSW
Pressure: PressureIn in 29.72 in -
Precipitation: 0.00 in    
Historical Graphs
 
 
Tabular Data for August 23, 2017
Time Temperature Dew Point Pressure Wind Wind Speed Wind Gust Humidity Rainfall Rate (Hourly)
TemperatureF °F DewpointF °F PressureIn in Calm     Humidity % HourlyPrecipIn in
00:03 74.0 °F 64.0 °F 29.86 in Calm     71 % 0.00 in
00:08 73.9 °F 63.9 °F 29.86 in Calm     71 % 0.00 in
00:10 73.8 °F 63.8 °F 29.86 in Calm     71 % 0.00 in
00:15 73.6 °F 64.8 °F 29.86 in Calm     74 % 0.00 in
00:20 73.5 °F 64.3 °F 29.86 in Calm     73 % 0.00 in
00:25 73.3 °F 64.9 °F 29.86 in Calm     75 % 0.00 in
00:30 73.0 °F 64.6 °F 29.86 in Calm     75 % 0.00 in
00:35 72.9 °F 65.3 °F 29.86 in Calm     77 % 0.00 in
00:40 72.7 °F 64.7 °F 29.86 in Calm     76 % 0.00 in
00:45 72.5 °F 64.9 °F 29.86 in Calm     77 % 0.00 in
00:50 72.2 °F 64.6 °F 29.86 in Calm     77 % 0.00 in
00:55 71.8 °F 64.2 °F 29.86 in Calm     77 % 0.00 in
01:00 71.6 °F 64.0 °F 29.86 in Calm     77 % 0.00 in
01:05 71.3 °F 63.7 °F 29.86 in Calm     77 % 0.00 in
01:10 70.9 °F 63.7 °F 29.86 in Calm     78 % 0.00 in
01:15 70.4 °F 63.9 °F 29.86 in Calm     80 % 0.00 in
01:17 70.2 °F 63.7 °F 29.86 in Calm     80 % 0.00 in
01:22 69.9 °F 63.8 °F 29.86 in Calm     81 % 0.00 in
01:27 69.7 °F 64.0 °F 29.85 in Calm     82 % 0.00 in
01:32 69.5 °F 64.1 °F 29.85 in Calm     83 % 0.00 in
01:37 69.3 °F 63.9 °F 29.86 in Calm     83 % 0.00 in
01:38 69.3 °F 64.3 °F 29.85 in Calm     84 % 0.00 in
01:43 69.1 °F 64.1 °F 29.85 in Calm     84 % 0.00 in
01:48 68.9 °F 63.9 °F 29.85 in Calm     84 % 0.00 in
01:53 68.7 °F 63.3 °F 29.86 in Calm     83 % 0.00 in
01:58 68.5 °F 63.1 °F 29.85 in Calm     83 % 0.00 in
02:03 68.5 °F 63.5 °F 29.85 in Calm     84 % 0.00 in
02:08 68.5 °F 63.1 °F 29.85 in Calm     83 % 0.00 in
02:13 68.4 °F 62.7 °F 29.85 in Calm     82 % 0.00 in
02:18 68.5 °F 63.1 °F 29.85 in Calm     83 % 0.00 in
02:23 68.5 °F 62.8 °F 29.85 in Calm     82 % 0.00 in
02:28 68.5 °F 62.8 °F 29.85 in Calm     82 % 0.00 in
02:33 68.4 °F 62.7 °F 29.85 in Calm     82 % 0.00 in
02:38 68.5 °F 62.4 °F 29.85 in Calm     81 % 0.00 in
02:43 68.5 °F 62.4 °F 29.85 in Calm     81 % 0.00 in
02:48 68.5 °F 62.4 °F 29.86 in ESE 1.2 mph   81 % 0.00 in
02:53 68.5 °F 62.4 °F 29.86 in Calm     81 % 0.00 in
02:58 68.6 °F 62.5 °F 29.86 in Calm     81 % 0.00 in
03:03 68.6 °F 62.5 °F 29.85 in SE 1.2 mph   81 % 0.00 in
03:08 68.5 °F 62.4 °F 29.85 in SE 1.2 mph 1.2 mph 81 % 0.00 in
03:13 68.4 °F 62.3 °F 29.85 in SE 1.0 mph 1.0 mph 81 % 0.00 in
03:18 68.3 °F 62.2 °F 29.85 in Calm   0.1 mph 81 % 0.00 in
03:20 68.3 °F 62.2 °F 29.85 in SE 1.0 mph 1.0 mph 81 % 0.00 in
03:25 68.0 °F 62.3 °F 29.85 in Calm     82 % 0.00 in
03:30 67.9 °F 62.2 °F 29.85 in ESE 1.2 mph 1.2 mph 82 % 0.00 in
03:35 67.7 °F 62.0 °F 29.85 in Calm     82 % 0.00 in
03:40 67.7 °F 62.0 °F 29.85 in Calm     82 % 0.00 in
03:45 67.7 °F 62.3 °F 29.85 in ESE 1.2 mph   83 % 0.00 in
03:50 67.5 °F 62.2 °F 29.85 in Calm     83 % 0.00 in
03:55 67.5 °F 62.2 °F 29.85 in Calm     83 % 0.00 in
04:00 67.4 °F 62.4 °F 29.85 in ESE 1.2 mph 1.2 mph 84 % 0.00 in
04:05 67.3 °F 62.3 °F 29.85 in SE 1.2 mph 1.2 mph 84 % 0.00 in
04:10 67.1 °F 62.4 °F 29.85 in SE 1.2 mph 1.2 mph 85 % 0.00 in
04:15 67.1 °F 62.4 °F 29.86 in SE 1.2 mph   85 % 0.00 in
04:20 67.1 °F 62.4 °F 29.86 in ESE 1.2 mph   85 % 0.00 in
04:25 67.1 °F 62.4 °F 29.86 in Calm     85 % 0.00 in
04:30 67.2 °F 62.5 °F 29.85 in Calm     85 % 0.00 in
04:35 67.2 °F 62.5 °F 29.86 in Calm     85 % 0.00 in
04:40 67.3 °F 62.3 °F 29.85 in Calm     84 % 0.00 in
04:45 67.4 °F 62.4 °F 29.86 in Calm     84 % 0.00 in
04:50 67.4 °F 62.1 °F 29.86 in Calm     83 % 0.00 in
04:55 67.4 °F 62.1 °F 29.86 in Calm     83 % 0.00 in
04:58 67.3 °F 62.0 °F 29.86 in Calm     83 % 0.00 in
05:03 67.2 °F 62.2 °F 29.86 in Calm     84 % 0.00 in
05:08 67.0 °F 62.0 °F 29.86 in Calm     84 % 0.00 in
05:13 66.9 °F 61.9 °F 29.86 in Calm     84 % 0.00 in
05:18 66.7 °F 62.0 °F 29.86 in Calm     85 % 0.00 in
05:23 66.6 °F 61.6 °F 29.86 in Calm     84 % 0.00 in
05:28 66.9 °F 61.9 °F 29.86 in Calm     84 % 0.00 in
05:32 67.2 °F 61.9 °F 29.86 in Calm     83 % 0.00 in
05:37 67.3 °F 62.0 °F 29.86 in Calm     83 % 0.00 in
05:42 67.4 °F 61.7 °F 29.86 in ESE 1.2 mph   82 % 0.00 in
05:47 67.6 °F 61.9 °F 29.86 in Calm     82 % 0.00 in
05:52 67.5 °F 61.8 °F 29.86 in Calm     82 % 0.00 in
05:57 67.3 °F 61.6 °F 29.86 in Calm     82 % 0.00 in
06:02 67.2 °F 62.2 °F 29.86 in Calm     84 % 0.00 in
06:07 67.2 °F 61.9 °F 29.87 in Calm     83 % 0.00 in
06:12 67.2 °F 61.9 °F 29.87 in Calm     83 % 0.00 in
06:17 67.1 °F 62.1 °F 29.87 in Calm     84 % 0.00 in
06:22 67.0 °F 62.0 °F 29.87 in Calm     84 % 0.00 in
06:27 67.0 °F 61.7 °F 29.87 in Calm     83 % 0.00 in
06:32 67.2 °F 62.2 °F 29.87 in Calm     84 % 0.00 in
06:37 67.2 °F 61.9 °F 29.87 in Calm     83 % 0.00 in
06:42 67.3 °F 61.6 °F 29.87 in Calm     82 % 0.00 in
06:47 67.4 °F 61.7 °F 29.88 in Calm     82 % 0.00 in
06:52 67.7 °F 62.0 °F 29.88 in Calm     82 % 0.00 in
06:57 67.9 °F 61.5 °F 29.88 in Calm     80 % 0.00 in
07:02 68.1 °F 62.0 °F 29.88 in ESE 1.2 mph   81 % 0.00 in
07:08 68.4 °F 61.6 °F 29.88 in Calm   0.1 mph 79 % 0.00 in
07:13 68.6 °F 61.8 °F 29.88 in Calm     79 % 0.00 in
07:18 68.9 °F 62.1 °F 29.88 in SE 1.2 mph 1.2 mph 79 % 0.00 in
07:23 69.1 °F 62.3 °F 29.88 in SE 1.2 mph   79 % 0.00 in
07:28 69.3 °F 62.1 °F 29.88 in Calm     78 % 0.00 in
07:33 69.7 °F 62.2 °F 29.88 in Calm     77 % 0.00 in
07:38 70.1 °F 62.2 °F 29.88 in Calm     76 % 0.00 in
07:43 70.9 °F 62.6 °F 29.88 in SSE 2.3 mph 2.3 mph 75 % 0.00 in
07:48 71.8 °F 62.3 °F 29.88 in SSE 1.2 mph 1.2 mph 72 % 0.00 in
07:53 72.6 °F 62.7 °F 29.88 in Calm     71 % 0.00 in
07:58 73.3 °F 62.9 °F 29.88 in SSE 2.3 mph 2.3 mph 70 % 0.00 in
08:03 73.9 °F 62.7 °F 29.88 in SE 2.3 mph 2.3 mph 68 % 0.00 in
08:08 74.5 °F 63.2 °F 29.88 in SSE 2.3 mph 2.3 mph 68 % 0.00 in
08:13 74.9 °F 63.2 °F 29.88 in ENE 1.0 mph 1.0 mph 67 % 0.00 in
08:18 75.4 °F 63.2 °F 29.88 in ESE 1.0 mph 1.0 mph 66 % 0.00 in
08:20 75.6 °F 63.4 °F 29.88 in ESE 2.3 mph 2.3 mph 66 % 0.00 in
08:25 76.0 °F 63.4 °F 29.88 in SSE 1.2 mph   65 % 0.00 in
08:30 77.0 °F 64.3 °F 29.88 in SE 3.5 mph 3.5 mph 65 % 0.00 in
08:35 77.4 °F 63.8 °F 29.88 in South 4.0 mph 4.0 mph 63 % 0.00 in
08:40 77.6 °F 64.0 °F 29.88 in South 2.3 mph 2.3 mph 63 % 0.00 in
08:45 78.0 °F 63.5 °F 29.88 in SE 3.5 mph 3.5 mph 61 % 0.00 in
08:50 78.4 °F 64.3 °F 29.88 in SE 1.2 mph 1.2 mph 62 % 0.00 in
08:55 78.9 °F 64.8 °F 29.88 in South 1.2 mph   62 % 0.00 in
09:00 79.5 °F 64.9 °F 29.88 in SE 1.2 mph 1.2 mph 61 % 0.00 in
09:05 80.2 °F 65.1 °F 29.88 in SE 1.2 mph 1.2 mph 60 % 0.00 in
09:10 80.8 °F 65.6 °F 29.88 in SSE 3.0 mph 3.0 mph 60 % 0.00 in
09:15 80.9 °F 65.2 °F 29.88 in South 3.5 mph 3.5 mph 59 % 0.00 in
09:20 81.0 °F 64.8 °F 29.87 in SSE 1.2 mph   58 % 0.00 in
09:25 81.0 °F 65.3 °F 29.87 in SE 2.3 mph 2.3 mph 59 % 0.00 in
09:30 81.6 °F 65.9 °F 29.88 in South 1.2 mph 1.2 mph 59 % 0.00 in
09:35 82.0 °F 65.3 °F 29.88 in SSE 1.2 mph 1.2 mph 57 % 0.00 in
09:40 82.4 °F 65.1 °F 29.88 in South 3.5 mph 3.5 mph 56 % 0.00 in
09:45 82.6 °F 65.8 °F 29.88 in SSE 1.2 mph 1.2 mph 57 % 0.00 in
09:50 83.1 °F 65.8 °F 29.88 in SSE 2.3 mph 2.3 mph 56 % 0.00 in
09:55 83.4 °F 65.0 °F 29.88 in SSE 4.0 mph 4.0 mph 54 % 0.00 in
10:00 83.7 °F 65.8 °F 29.88 in South 2.3 mph 2.3 mph 55 % 0.00 in
10:05 84.2 °F 65.8 °F 29.88 in SE 3.5 mph 3.5 mph 54 % 0.00 in
10:10 84.6 °F 66.1 °F 29.88 in South 3.5 mph 3.5 mph 54 % 0.00 in
10:15 85.2 °F 66.7 °F 29.87 in SSW 3.5 mph 3.5 mph 54 % 0.00 in
10:20 85.3 °F 66.2 °F 29.87 in SSE 4.6 mph 4.6 mph 53 % 0.00 in
10:25 85.2 °F 66.7 °F 29.87 in SSE 2.3 mph 2.3 mph 54 % 0.00 in
10:30 85.7 °F 66.6 °F 29.87 in East 3.5 mph 3.5 mph 53 % 0.00 in
10:35 85.9 °F 66.8 °F 29.87 in South 2.3 mph 2.3 mph 53 % 0.00 in
10:40 86.3 °F 67.2 °F 29.87 in SSE 2.3 mph 2.3 mph 53 % 0.00 in
10:45 86.7 °F 66.4 °F 29.87 in East 3.5 mph 3.5 mph 51 % 0.00 in
10:50 86.8 °F 67.1 °F 29.87 in ESE 2.3 mph 2.3 mph 52 % 0.00 in
10:55 87.5 °F 67.7 °F 29.87 in NE 2.3 mph 2.3 mph 52 % 0.00 in
11:00 87.8 °F 67.4 °F 29.87 in SE 3.5 mph 3.5 mph 51 % 0.00 in
11:01 87.9 °F 68.1 °F 29.87 in SSE 2.3 mph 2.3 mph 52 % 0.00 in
11:06 88.2 °F 67.2 °F 29.86 in WNW 1.2 mph 1.2 mph 50 % 0.00 in
11:11 88.3 °F 67.3 °F 29.86 in SE 3.5 mph 3.5 mph 50 % 0.00 in
11:13 88.2 °F 67.2 °F 29.86 in SSE 3.5 mph 3.5 mph 50 % 0.00 in
11:18 88.3 °F 67.3 °F 29.86 in South 2.3 mph 2.3 mph 50 % 0.00 in
11:23 88.6 °F 68.2 °F 29.86 in ESE 1.2 mph 1.2 mph 51 % 0.00 in
11:28 88.8 °F 68.3 °F 29.85 in East 2.3 mph 2.3 mph 51 % 0.00 in
11:33 88.6 °F 65.8 °F 29.85 in North 3.5 mph 3.5 mph 47 % 0.00 in
11:38 88.9 °F 67.9 °F 29.85 in WNW 2.3 mph 2.3 mph 50 % 0.00 in
11:43 89.3 °F 67.0 °F 29.85 in NNW 2.3 mph 2.3 mph 48 % 0.00 in
11:48 89.6 °F 66.7 °F 29.84 in WNW 3.0 mph 3.0 mph 47 % 0.00 in
11:53 89.4 °F 67.7 °F 29.84 in SE 2.3 mph 2.3 mph 49 % 0.00 in
11:58 89.6 °F 67.3 °F 29.84 in East 2.3 mph 2.3 mph 48 % 0.00 in
12:03 90.2 °F 67.2 °F 29.84 in South 3.5 mph 3.5 mph 47 % 0.00 in
12:08 90.8 °F 67.8 °F 29.84 in NW 1.0 mph 1.0 mph 47 % 0.00 in
12:13 90.6 °F 67.0 °F 29.84 in SSE 2.0 mph 2.0 mph 46 % 0.00 in
12:18 91.1 °F 68.1 °F 29.83 in SSE 2.3 mph 2.3 mph 47 % 0.00 in
12:23 91.6 °F 67.9 °F 29.83 in SSW 2.3 mph 2.3 mph 46 % 0.00 in
12:29 91.4 °F 69.0 °F 29.83 in NE 2.0 mph 2.0 mph 48 % 0.00 in
12:34 91.6 °F 67.9 °F 29.83 in NNW 2.3 mph 2.3 mph 46 % 0.00 in
12:39 91.6 °F 67.9 °F 29.83 in South 3.5 mph 3.5 mph 46 % 0.00 in
12:44 91.8 °F 68.1 °F 29.83 in NE 3.5 mph 3.5 mph 46 % 0.00 in
12:49 91.7 °F 67.3 °F 29.83 in NNW 3.5 mph 3.5 mph 45 % 0.00 in
12:54 91.8 °F 66.8 °F 29.83 in East 1.2 mph 1.2 mph 44 % 0.00 in
12:59 92.2 °F 68.4 °F 29.82 in SE 2.3 mph 2.3 mph 46 % 0.00 in
13:04 92.9 °F 67.1 °F 29.82 in ENE 2.3 mph 2.3 mph 43 % 0.00 in
13:09 92.9 °F 67.8 °F 29.82 in NNE 1.2 mph 1.2 mph 44 % 0.00 in
13:14 93.2 °F 66.7 °F 29.82 in NW 3.5 mph 3.5 mph 42 % 0.00 in
13:19 93.4 °F 67.6 °F 29.81 in NW 2.3 mph 2.3 mph 43 % 0.00 in
13:24 93.4 °F 65.5 °F 29.81 in ENE 2.3 mph 2.3 mph 40 % 0.00 in
13:29 93.3 °F 66.1 °F 29.81 in NNE 2.3 mph 2.3 mph 41 % 0.00 in
13:34 93.9 °F 66.6 °F 29.81 in East 2.3 mph 2.3 mph 41 % 0.00 in
13:39 94.3 °F 66.3 °F 29.81 in SW 2.3 mph 2.3 mph 40 % 0.00 in
13:44 94.6 °F 65.8 °F 29.81 in WSW 3.5 mph 3.5 mph 39 % 0.00 in
13:49 94.7 °F 68.0 °F 29.81 in East 1.2 mph 1.2 mph 42 % 0.00 in
13:54 95.1 °F 66.2 °F 29.80 in WNW 2.0 mph 2.0 mph 39 % 0.00 in
13:59 94.3 °F 65.5 °F 29.80 in WSW 4.0 mph 4.0 mph 39 % 0.00 in
14:04 94.6 °F 67.3 °F 29.80 in WNW 3.5 mph 3.5 mph 41 % 0.00 in
14:09 95.1 °F 66.2 °F 29.80 in South 3.5 mph 3.5 mph 39 % 0.00 in
14:14 95.6 °F 66.7 °F 29.80 in ESE 3.5 mph 3.5 mph 39 % 0.00 in
14:19 96.1 °F 65.6 °F 29.79 in WNW 5.0 mph 5.0 mph 37 % 0.00 in
14:24 95.6 °F 65.9 °F 29.79 in SSE 1.2 mph 1.2 mph 38 % 0.00 in
14:29 96.2 °F 66.5 °F 29.79 in SE 1.2 mph 1.2 mph 38 % 0.00 in
14:34 96.3 °F 64.2 °F 29.79 in SSE 1.2 mph 1.2 mph 35 % 0.00 in
14:39 96.3 °F 65.0 °F 29.79 in North 1.2 mph 1.2 mph 36 % 0.00 in
14:44 96.3 °F 63.4 °F 29.79 in NW 3.5 mph 3.5 mph 34 % 0.00 in
14:49 95.7 °F 63.7 °F 29.78 in SE 3.5 mph 3.5 mph 35 % 0.00 in
14:54 96.2 °F 64.1 °F 29.78 in West 4.0 mph 4.0 mph 35 % 0.00 in
14:59 96.2 °F 65.7 °F 29.78 in SSE 1.2 mph 1.2 mph 37 % 0.00 in
15:04 96.9 °F 63.9 °F 29.78 in NNE 2.0 mph 2.0 mph 34 % 0.00 in
15:09 97.0 °F 65.6 °F 29.77 in North 2.3 mph 2.3 mph 36 % 0.00 in
15:14 96.6 °F 62.8 °F 29.77 in NNW 1.2 mph 1.2 mph 33 % 0.00 in
15:19 96.8 °F 64.6 °F 29.77 in NW 2.0 mph 2.0 mph 35 % 0.00 in
15:22 96.7 °F 63.7 °F 29.77 in WNW 3.5 mph 3.5 mph 34 % 0.00 in
15:27 96.2 °F 63.3 °F 29.77 in North 1.2 mph 1.2 mph 34 % 0.00 in
15:32 96.3 °F 62.5 °F 29.77 in SSW 1.2 mph 1.2 mph 33 % 0.00 in
15:37 96.6 °F 64.5 °F 29.76 in NW 2.3 mph 2.3 mph 35 % 0.00 in
15:42 96.6 °F 65.3 °F 29.76 in NW 2.3 mph 2.3 mph 36 % 0.00 in
15:47 96.3 °F 64.2 °F 29.76 in East 1.2 mph 1.2 mph 35 % 0.00 in
15:52 96.4 °F 62.6 °F 29.76 in NW 3.5 mph 3.5 mph 33 % 0.00 in
15:57 96.5 °F 62.7 °F 29.76 in North 1.2 mph 1.2 mph 33 % 0.00 in
16:02 96.9 °F 63.0 °F 29.75 in South 3.5 mph 3.5 mph 33 % 0.00 in
16:07 97.3 °F 61.6 °F 29.75 in South 2.3 mph 2.3 mph 31 % 0.00 in
16:12 97.5 °F 62.7 °F 29.75 in NNW 2.3 mph 2.3 mph 32 % 0.00 in
16:17 97.6 °F 63.6 °F 29.75 in Calm     33 % 0.00 in
16:22 97.8 °F 62.0 °F 29.75 in Calm     31 % 0.00 in
16:27 97.7 °F 62.9 °F 29.75 in North 3.5 mph 3.5 mph 32 % 0.00 in
16:32 97.4 °F 62.6 °F 29.74 in West 2.3 mph 2.3 mph 32 % 0.00 in
16:37 97.4 °F 61.7 °F 29.75 in WSW 3.5 mph 3.5 mph 31 % 0.00 in
16:42 97.5 °F 61.8 °F 29.74 in NNE 2.3 mph 2.3 mph 31 % 0.00 in
16:47 97.9 °F 63.0 °F 29.74 in WSW 1.2 mph   32 % 0.00 in
16:52 97.8 °F 62.0 °F 29.74 in North 2.0 mph 2.0 mph 31 % 0.00 in
16:57 97.5 °F 62.7 °F 29.74 in NW 4.0 mph 4.0 mph 32 % 0.00 in
17:02 96.6 °F 61.9 °F 29.74 in NW 4.0 mph 4.0 mph 32 % 0.00 in
17:07 96.3 °F 60.7 °F 29.74 in NW 3.5 mph 3.5 mph 31 % 0.00 in
17:12 96.2 °F 60.7 °F 29.74 in NW 3.5 mph 3.5 mph 31 % 0.00 in
17:17 96.0 °F 60.5 °F 29.74 in NW 3.0 mph 3.0 mph 31 % 0.00 in
17:22 96.0 °F 59.6 °F 29.74 in NW 3.5 mph 3.5 mph 30 % 0.00 in
17:27 96.0 °F 60.5 °F 29.74 in NW 3.5 mph 3.5 mph 31 % 0.00 in
17:32 95.7 °F 59.3 °F 29.73 in NNW 4.0 mph 4.0 mph 30 % 0.00 in
17:37 95.6 °F 60.1 °F 29.74 in West 3.5 mph 3.5 mph 31 % 0.00 in
17:42 95.7 °F 61.1 °F 29.73 in NW 3.0 mph 3.0 mph 32 % 0.00 in
17:47 95.5 °F 61.0 °F 29.74 in NW 3.5 mph 3.5 mph 32 % 0.00 in
17:52 95.2 °F 59.8 °F 29.73 in NW 3.5 mph 3.5 mph 31 % 0.00 in
17:57 95.1 °F 60.6 °F 29.73 in NW 2.3 mph 2.3 mph 32 % 0.00 in
18:02 95.1 °F 60.6 °F 29.73 in NNW 2.3 mph 2.3 mph 32 % 0.00 in
18:07 95.2 °F 59.8 °F 29.73 in NW 2.3 mph 2.3 mph 31 % 0.00 in
18:12 95.1 °F 61.5 °F 29.73 in WNW 1.2 mph 1.2 mph 33 % 0.00 in
18:17 95.0 °F 60.5 °F 29.73 in West 2.3 mph 2.3 mph 32 % 0.00 in
18:22 95.0 °F 59.6 °F 29.72 in WNW 1.2 mph 1.2 mph 31 % 0.00 in
18:27 94.7 °F 60.3 °F 29.72 in West 1.2 mph 1.2 mph 32 % 0.00 in
18:32 94.1 °F 60.6 °F 29.72 in NNW 2.3 mph 2.3 mph 33 % 0.00 in
18:37 93.6 °F 61.0 °F 29.72 in NNE 1.2 mph   34 % 0.00 in
18:42 93.0 °F 61.3 °F 29.72 in WNW 1.2 mph 1.2 mph 35 % 0.00 in
18:47 92.5 °F 62.4 °F 29.72 in Calm     37 % 0.00 in
18:52 92.1 °F 62.8 °F 29.72 in NW 2.3 mph 2.3 mph 38 % 0.00 in
18:57 91.7 °F 63.2 °F 29.72 in Calm   0.4 mph 39 % 0.00 in
19:02 91.3 °F 63.6 °F 29.72 in WNW 1.2 mph   40 % 0.00 in
19:07 90.9 °F 63.9 °F 29.72 in Calm     41 % 0.00 in
19:12 90.5 °F 64.3 °F 29.73 in WNW 1.2 mph 1.2 mph 42 % 0.00 in
19:17 90.2 °F 64.7 °F 29.73 in WNW 1.2 mph   43 % 0.00 in
19:22 89.9 °F 64.4 °F 29.73 in WNW 1.2 mph 1.2 mph 43 % 0.00 in
19:27 89.5 °F 64.7 °F 29.73 in WNW 1.2 mph   44 % 0.00 in
19:32 89.3 °F 63.2 °F 29.73 in Calm     42 % 0.00 in
19:37 89.2 °F 63.8 °F 29.73 in WNW 1.2 mph 1.2 mph 43 % 0.00 in
19:42 89.0 °F 64.3 °F 29.73 in WNW 1.2 mph 1.2 mph 44 % 0.00 in
19:47 88.7 °F 64.0 °F 29.73 in WNW 1.2 mph   44 % 0.00 in
19:52 88.4 °F 64.4 °F 29.73 in Calm     45 % 0.00 in
19:58 88.0 °F 64.6 °F 29.74 in Calm     46 % 0.00 in
20:03 87.4 °F 64.7 °F 29.73 in Calm     47 % 0.00 in
20:08 86.8 °F 65.3 °F 29.74 in Calm     49 % 0.00 in
20:13 86.3 °F 64.3 °F 29.74 in Calm     48 % 0.00 in
20:18 86.0 °F 64.0 °F 29.74 in Calm     48 % 0.00 in
20:23 85.8 °F 65.0 °F 29.74 in Calm     50 % 0.00 in
20:28 85.5 °F 65.3 °F 29.74 in Calm     51 % 0.00 in
20:33 85.0 °F 67.0 °F 29.74 in Calm     55 % 0.00 in
20:38 84.6 °F 66.7 °F 29.74 in Calm     55 % 0.00 in
20:43 84.1 °F 66.2 °F 29.75 in Calm     55 % 0.00 in
20:48 83.7 °F 66.8 °F 29.75 in Calm     57 % 0.00 in
20:53 82.9 °F 67.1 °F 29.75 in Calm     59 % 0.00 in
20:58 82.3 °F 67.0 °F 29.75 in WNW 1.2 mph   60 % 0.00 in
21:03 81.9 °F 66.6 °F 29.75 in Calm     60 % 0.00 in
21:08 81.6 °F 66.4 °F 29.75 in Calm     60 % 0.00 in
21:13 81.4 °F 66.7 °F 29.76 in Calm     61 % 0.00 in
21:18 81.1 °F 65.9 °F 29.76 in Calm     60 % 0.00 in
21:28 80.8 °F 66.1 °F 29.76 in Calm     61 % 0.00 in
21:33 80.7 °F 66.0 °F 29.76 in Calm     61 % 0.00 in
21:38 80.7 °F 66.0 °F 29.76 in Calm     61 % 0.00 in
21:43 80.5 °F 66.3 °F 29.76 in Calm     62 % 0.00 in
21:48 80.3 °F 66.6 °F 29.76 in Calm     63 % 0.00 in
21:53 79.9 °F 66.2 °F 29.76 in Calm     63 % 0.00 in
21:58 79.6 °F 66.3 °F 29.76 in Calm     64 % 0.00 in
22:03 79.5 °F 65.8 °F 29.76 in Calm     63 % 0.00 in
22:08 79.4 °F 66.2 °F 29.76 in Calm     64 % 0.00 in
22:13 79.3 °F 66.5 °F 29.76 in Calm     65 % 0.00 in
22:18 79.0 °F 67.1 °F 29.77 in Calm     67 % 0.00 in
22:23 78.8 °F 67.3 °F 29.77 in Calm     68 % 0.00 in
22:28 78.6 °F 67.2 °F 29.77 in Calm     68 % 0.00 in
22:31 78.6 °F 67.6 °F 29.77 in WNW 1.2 mph 1.2 mph 69 % 0.00 in
22:36 78.6 °F 67.6 °F 29.77 in Calm     69 % 0.00 in
22:41 78.6 °F 67.6 °F 29.77 in Calm     69 % 0.00 in
22:46 78.4 °F 67.0 °F 29.77 in Calm     68 % 0.00 in
22:51 78.3 °F 66.9 °F 29.77 in Calm     68 % 0.00 in
22:56 78.1 °F 66.2 °F 29.77 in Calm     67 % 0.00 in
23:01 78.1 °F 66.7 °F 29.77 in Calm     68 % 0.00 in
23:06 78.1 °F 66.7 °F 29.77 in Calm     68 % 0.00 in
23:11 78.3 °F 67.3 °F 29.77 in Calm     69 % 0.00 in
23:16 78.1 °F 67.1 °F 29.77 in Calm     69 % 0.00 in
23:21 77.9 °F 67.3 °F 29.77 in Calm     70 % 0.00 in
23:22 77.9 °F 67.3 °F 29.77 in Calm     70 % 0.00 in
23:27 77.7 °F 67.1 °F 29.77 in Calm     70 % 0.00 in
23:28 77.7 °F 67.5 °F 29.77 in Calm     71 % 0.00 in
23:33 77.5 °F 66.5 °F 29.77 in Calm     69 % 0.00 in
23:38 77.3 °F 66.7 °F 29.77 in Calm     70 % 0.00 in
23:43 77.1 °F 66.6 °F 29.77 in Calm     70 % 0.00 in
23:48 76.9 °F 66.8 °F 29.77 in Calm     71 % 0.00 in
23:53 76.8 °F 67.5 °F 29.77 in Calm     73 % 0.00 in
23:54 76.8 °F 67.5 °F 29.77 in Calm     73 % 0.00 in
23:59 76.9 °F 67.6 °F 29.77 in Calm     73 % 0.00 in
Park Place, Exeter, Tulare County, California, USA
Compliments of Weather Underground - 2.75 mb